Location: Ocean City
(38.3360°N, 75.0850°W)
Time: 22:41:04
(UTC-05:00)

deb Explorer IX - Pass Details

Date: 17 November 2019
Orbit: 545 x 1105 km, 38.8° (Epoch: 05 December)

Event Time Altitude Azimuth Distance (km) Brightness Sun altitude
Exits shadow 03:10:55 12° 82° (E) 2,007 ? -41.6°
Drops below altitude 10° 03:11:16 10° 82° (E) 2,134 ? -41.5°
Sets 03:13:27 0° 82° (E) 2,974 ? -41.1°
